#timestamp,LO_Frequency,Hit 
1500732015.1,286047000.1,N
1500732016.0,286047000.1,N
1500732035.8,286047000.3,N
1500732055.7,286047000.2,N
1500732075.5,286047000.4,N
1500732095.3,286047000.5,N
1500732115.2,286046998.2,N
1500732135.0,286047000.8,N
1500732135.9,286047000.8,N
1500732155.8,286047000.6,N
1500732175.6,286047000.9,N
1500732195.4,286046999.0,N
1500732215.3,286046999.4,N
1500732235.1,286046999.0,N
1500732255.9,286046996.6,N
1500732275.7,286046998.2,N
1500732295.5,286046998.2,N
1500732315.4,286046999.3,N
1500732335.2,286046999.6,N
1500732355.0,286046997.2,N
1500732355.9,286046997.2,N
1500732375.8,286046997.0,N
1500732395.6,286046996.5,Y
1500732415.5,286046998.8,N
1500732435.3,286046998.5,N
1500732455.1,286046998.2,N
1500732475.9,286047001.1,N
1500732495.7,286047001.1,N
1500732515.6,286047000.9,N
1500732535.4,286047000.2,N
1500732555.2,286047000.3,N
1500732575.1,286047000.9,N
1500732576.0,286047000.9,N
1500732595.8,286047000.0,N
1500732615.6,286047000.3,N
1500732635.5,286047000.7,N
1500732655.3,286047001.0,N
1500732675.2,286047000.6,N
1500732695.9,286046999.8,N
1500732715.7,286047002.7,N
1500732735.6,286047000.0,N
1500732755.4,286046998.2,N
1500732775.2,286046998.5,N
1500732795.1,286046998.1,N
1500732796.0,286046998.1,N
1500732815.8,286047000.9,N
1500732835.7,286047000.9,N
1500732855.5,286047000.4,N
1500732875.3,286046999.8,N
1500732895.2,286047002.4,N
1500732915.0,286046999.9,N
1500732915.9,286046999.9,N
1500732935.7,286046999.8,N
1500732955.6,286047000.4,N
1500732975.4,286047000.7,N
1500732995.3,286046998.6,N
1500733015.1,286046998.7,N
1500733016.0,286046998.7,N
1500733035.8,286046999.0,N
1500733055.7,286046998.1,N
1500733075.5,286047001.1,N
1500733095.3,286046998.6,N
1500733115.2,286046998.2,N
1500733135.0,286046998.5,N
1500733135.9,286046998.5,N
1500733155.8,286047001.0,N
1500733175.6,286047000.5,N
1500733195.4,286047000.0,N
1500733215.3,286047001.1,N
1500733235.1,286046998.1,N
1500733255.8,286046998.4,N
1500733275.7,286046998.8,N
1500733295.5,286046998.7,N
1500733315.4,286046999.4,N
1500733335.2,286046998.4,N
1500733355.0,286046998.7,N
1500733355.9,286046998.7,N
1500733375.8,286046998.5,N
1500733395.6,286046998.3,N
1500733415.4,286046998.7,N
1500733435.3,286046999.4,N
1500733455.1,286046999.3,N
1500733475.9,286046998.4,N
1500733495.7,286047001.2,N
1500733515.5,286047001.1,N
1500733535.4,286046998.1,N
1500733555.2,286047000.8,N
1500733575.0,286047000.4,N
1500733575.9,286047000.4,N
1500733595.8,286047001.9,N
1500733615.6,286047001.6,N
1500733635.5,286047002.2,N
1500733655.3,286047002.8,N
1500733675.1,286047000.8,N
1500733695.9,286047000.9,N
1500733715.7,286046998.6,N
1500733735.5,286046998.4,N
1500733755.4,286047001.0,N
1500733775.2,286047000.8,N
1500733795.1,286046998.5,N
1500733796.0,286046998.5,N
1500733815.8,286046999.2,N
1500733835.6,286046999.5,N
1500733855.5,286046999.2,N
1500733875.3,286046999.2,N
1500733895.1,286046996.5,N
1500733915.9,286046999.6,N
1500733935.7,286046999.6,N
1500733955.6,286046996.7,N
1500733975.4,286046996.9,N
1500733995.2,286046996.6,N
1500734015.1,286046996.9,N
1500734016.0,286046996.9,N
1500734035.8,286046997.3,N
1500734055.6,286046997.7,N
1500734075.5,286046997.6,N
1500734095.3,286046998.0,N
1500734115.2,286046997.6,N
1500734135.9,286046996.8,N
1500734155.7,286046997.9,N
1500734175.6,286046996.1,N
1500734195.4,286046995.2,N
1500734215.2,286046995.2,N
1500734235.1,286046995.0,N
1500734236.0,286046995.0,N
1500734255.8,286046997.7,N
1500734275.7,286046997.2,N
1500734295.5,286046996.7,N
1500734315.3,286046999.6,N
1500734335.2,286046999.5,N
1500734355.0,286046996.6,N
1500734355.9,286046996.6,N
1500734375.7,286046997.0,N
1500734395.6,286046996.9,N
1500734415.4,286046996.5,N
1500734435.3,286046997.1,N
1500734455.1,286046997.1,N
1500734456.0,286046997.1,N
1500734475.8,286046997.7,N
1500734495.7,286046996.7,N
1500734515.5,286046996.9,N
1500734535.4,286046996.6,Y
1500734555.2,286046999.7,N
1500734575.0,286046999.9,N
1500734575.9,286046999.9,N
1500734595.8,286047002.8,N
1500734615.6,286046999.7,N
1500734635.5,286047000.5,N
1500734655.3,286047000.5,N
1500734675.1,286047001.0,N
1500734695.9,286047001.0,N
1500734715.7,286047000.2,N
1500734735.5,286047002.3,N
1500734755.4,286047002.7,N
1500734775.2,286047002.5,N
1500734795.0,286047002.2,N
1500734795.9,286047002.2,N
1500734815.8,286047001.3,N
1500734835.6,286047001.4,N
1500734855.5,286047001.8,N
1500734875.3,286047002.0,N
1500734895.1,286047004.2,N
1500734915.9,286047001.8,N
1500734935.7,286047004.0,N
1500734955.5,286047001.5,N
1500734975.4,286047001.9,N
1500734995.2,286047002.5,N
1500735015.1,286047002.6,N
1500735016.0,286047002.6,N
1500735035.8,286047002.8,N
1500735055.6,286047000.0,N
1500735075.5,286047000.3,N
1500735095.3,286047002.7,N
1500735115.1,286046999.7,N
1500735135.9,286046999.7,N
1500735155.7,286046999.7,N
1500735175.6,286046999.7,N
1500735195.4,286046999.7,N
1500735215.2,286047000.0,N
1500735235.1,286047001.1,N
1500735236.0,286047001.1,N
1500735255.8,286046998.6,N
1500735275.6,286046998.3,N
1500735295.5,286046998.3,N
1500735315.3,286046998.3,N
1500735335.2,286046998.1,N
1500735355.9,286047000.7,N
1500735375.7,286047001.2,N
1500735395.6,286047000.7,N
1500735415.4,286047001.0,N
1500735435.2,286047000.7,N
1500735455.1,286047001.1,N
1500735456.0,286047001.1,N
1500735475.8,286046998.5,N
1500735495.7,286047001.2,N
1500735515.5,286047001.0,N
1500735535.3,286046998.2,N
1500735555.2,286046998.2,N
1500735575.0,286046998.2,N
1500735595.1,286047000.7,N
